sat.trackr.live / text

‹ back to catalog

JCSAT-13

NORAD 38331 · 2012-023A

PAYLOAD ACTIVE UNKNOWN

§ Identity

Operator
Country
JPN
Launch date
2012-05-15
Launch site
FRGUI
Launch vehicle
Mass (kg)
RCS (m²)
39.81

Purposes: comms

External: N2YO · Heavens-Above · Gunter

§ Orbital elements

Epoch: 2026-09-19T22:41:33.402336Z

Period
1,436.11 min
Inclination
0.0171°
Eccentricity
0.0002367
Mean motion
1.00270785 rev/d
Perigee alt
35,776.9 km
Apogee alt
35,796.9 km
Semi-major
42,165.0 km
B*
0.0000e+0
RAAN
211.5730°
Arg perigee
318.1536°
Mean anomaly
293.5329°
Rev number
5,250

§ Raw data

JCSAT-131 38331U 12023A   26262.94552549 -.00000360  00000+0  00000+0 0  99952 38331   0.0171 211.5730 0002367 318.1536 293.5329  1.00270785 52508

JSON: /api/v1/satellites/38331 · /tle

For live sub-satellite position, see the globe view (requires WebGL).

§ Visibility from observer

Set your observer location to see the next 7 days of passes ≥ 10°. The values pass through the URL so the page stays shareable.

No JS? Fill the form by hand. The geolocation button needs JavaScript.